[[{"header":{"parameterUnit":"m.s-1","parameterCategory":1,"la1":30.2991,"la2":30.254,"lo1":-89.0895,"lo2":-89.0444,"dy":0.0017,"dx":0.0017,"nx":28,"ny":28,"refTime":"2023-09-25T09:00:00:Z","depth":0,"parameterNumber":2,"parameterNumberName":"U-component_of_WINDS"},"data":[0,0,0,0,0,0,0,0,0,0,0,0,0,0,0,0,0,0,0,0,0,0,0,0,0,0,0,0,0,0,0,0,0,0,0,0,0,0,0,0,0,0,0,0,0,0,0,0,0,0,0,0,0,0,0,0,0,0,-1.444,-1.444,0,-1.4414,-1.4414,-1.4414,-1.4325,-1.4323,-1.4321,-1.432,-1.4297,-1.4298,-1.4299,0,0,0,0,0,0,0,0,0,0,0,0,0,-1.4417,-1.4418,-1.444,-1.444,-1.4439,-1.4414,-1.4414,-1.4414,-1.4326,-1.4323,-1.4321,-1.4319,-1.4296,-1.4298,-1.4299,0,0,0,0,0,0,0,0,0,0,0,0,0,-1.4413,-1.4418,-1.444,-1.4392,-1.4388,-1.4414,-1.4414,-1.4414,-1.4326,-1.4323,-1.432,-1.4318,-1.4296,-1.4298,-1.43,-1.4371,0,0,-1.4305,-1.4306,0,0,0,0,0,0,0,0,-1.4413,-1.4414,-1.44,-1.4396,-1.4391,-1.437,-1.4397,-1.4399,-1.4327,-1.435,-1.432,-1.4316,-1.4324,-1.4323,-1.4325,-1.437,-1.4369,-1.4306,-1.4307,-1.4307,-1.4308,0,0,0,0,0,0,0,-1.4413,-1.4414,-1.443,-1.44,-1.4394,-1.4374,-1.437,-1.4397,-1.4354,-1.4348,-1.4341,-1.4339,-1.4321,-1.4324,-1.4324,-1.4369,-1.4305,-1.4307,-1.4308,-1.4309,-1.4472,-1.4475,0,0,0,0,0,0,-1.442,-1.4415,-1.4431,-1.4429,-1.4395,-1.4376,-1.4372,-1.438,-1.4353,-1.4347,-1.4342,-1.4335,-1.4322,-1.4322,-1.4323,-1.4405,-1.4307,-1.4309,-1.431,-1.4469,-1.4473,-1.4476,0,0,0,0,0,0,-1.442,-1.4422,-1.4432,-1.442,-1.442,-1.438,-1.4389,-1.4381,-1.4383,-1.4349,-1.4341,-1.4352,-1.4319,-1.432,-1.436,-1.4403,-1.431,-1.4312,-1.4465,-1.447,-1.4475,-1.4571,0,0,0,0,0,0,-1.4419,-1.4423,-1.4448,-1.4421,-1.4421,-1.4468,-1.4392,-1.4382,-1.4386,-1.4377,-1.4357,-1.435,-1.4317,-1.4357,-1.4362,-1.4404,-1.4313,-1.4461,-1.4467,-1.4473,-1.4563,-1.4578,-1.4591,0,0,0,0,0,-1.4419,-1.4477,-1.445,-1.4453,-1.4452,-1.4471,-1.4471,-1.443,-1.439,-1.4416,-1.4395,-1.4351,-1.4398,-1.4362,-1.4366,-1.441,-1.4458,-1.4466,-1.4473,-1.4557,-1.4575,-1.459,0,0,0,0,0,0,-1.4511,-1.4473,-1.4442,-1.4493,-1.4486,-1.4456,-1.4488,-1.445,-1.4455,-1.4447,-1.4397,-1.4393,-1.444,-1.4429,-1.439,-1.4478,-1.4421,-1.4429,-1.4484,-1.45,-1.4514,-1.4516,-1.4315,0,0,0,0,0,-1.4537,-1.4555,-1.452,-1.4569,-1.4567,-1.4528,-1.4535,-1.4504,-1.4495,-1.4492,-1.4473,-1.4467,-1.448,-1.4489,-1.45,-1.4561,-1.4556,-1.4593,-1.4607,-1.4618,-1.4626,-1.4659,-1.4675,-1.45,-1.45,-1.45,0,0,-1.4592,-1.4573,-1.4587,-1.4587,-1.4578,-1.4598,-1.4526,-1.455,-1.4565,-1.4496,-1.4532,-1.4518,-1.4508,-1.4559,-1.458,-1.4551,-1.4674,-1.4628,-1.4637,-1.4639,-1.4668,-1.4685,-1.4699,-1.4505,-1.4504,-1.4503,0,0,-1.4702,-1.4689,-1.4728,-1.472,-1.4706,-1.468,-1.469,-1.4665,-1.4653,-1.4688,-1.4637,-1.4654,-1.4678,-1.4673,-1.4674,-1.4782,-1.4743,-1.4787,-1.4859,-1.4891,-1.4905,-1.4917,-1.4956,-1.4971,-1.4795,-1.4796,-1.4796,0,-1.4771,-1.4798,-1.4753,-1.478,-1.4782,-1.4719,-1.4759,-1.4754,-1.4746,-1.4749,-1.4716,-1.4744,-1.4733,-1.4782,-1.4809,-1.4811,-1.4822,-1.4789,-1.4906,-1.4918,-1.4928,-1.4965,-1.498,-1.4801,-1.48,-1.48,-1.4799,0,-1.4885,-1.4905,-1.4938,-1.493,-1.4936,-1.497,-1.4931,-1.4942,-1.4911,-1.489,-1.4927,-1.4911,-1.4917,-1.4927,-1.4897,-1.4973,-1.4955,-1.4915,-1.4856,-1.4951,-1.4985,-1.4999,-1.4809,-1.4807,-1.4805,-1.4804,0,0,-1.5052,-1.5018,-1.5031,-1.5027,-1.5008,-1.5023,-1.5055,-1.5059,-1.5071,-1.5067,-1.5093,-1.5115,-1.5078,-1.5078,-1.5048,-1.5076,-1.5164,-1.5033,-1.5032,-1.5058,-1.5247,-1.5277,-1.5294,-1.5138,-1.514,-1.5142,-1.5248,0,-1.5156,-1.5207,-1.5167,-1.5225,-1.5244,-1.5184,-1.5212,-1.5204,-1.5185,-1.5198,-1.5177,-1.5194,-1.5143,-1.5144,-1.5169,-1.5148,-1.5201,-1.514,-1.5162,-1.5164,-1.5167,-1.5311,-1.5343,-1.5443,-1.526,-1.5263,-1.5264,0,-1.5285,-1.5286,-1.5346,-1.5323,-1.5329,-1.5354,-1.5356,-1.5369,-1.536,-1.5344,-1.5345,-1.5307,-1.5338,-1.528,-1.5322,-1.5282,-1.5288,-1.528,-1.5283,-1.5283,-1.522,-1.5316,-1.5474,-1.5489,-1.5285,-1.5283,-1.5282,0,-1.5401,-1.5418,-1.5455,-1.5454,-1.5428,-1.5447,-1.5438,-1.5425,-1.543,-1.5432,-1.5436,-1.5442,-1.5446,-1.5452,-1.5417,-1.5378,-1.5464,-1.5404,-1.5453,-1.5454,-1.5473,-1.5472,-1.5635,-1.5478,-1.5478,-1.5477,-1.5477,0,-1.5522,-1.5561,-1.5507,-1.5531,-1.5573,-1.5528,-1.5571,-1.5556,-1.5545,-1.5565,-1.5515,-1.5535,-1.5488,-1.5504,-1.5478,-1.5517,-1.5519,-1.5508,-1.55,-1.5512,-1.5514,-1.5516,-1.5508,-1.5481,-1.548,-1.548,-1.5479,0,-1.5659,-1.5624,-1.5662,-1.5634,-1.5628,-1.5661,-1.5638,-1.5659,-1.5636,-1.5663,-1.5666,-1.5631,-1.5647,-1.5613,-1.5625,-1.5607,-1.5663,-1.5644,-1.5666,-1.566,-1.5711,-1.5707,-1.5881,-1.5901,-1.5732,-1.5733,-1.5735,0,-1.5738,-1.5766,-1.5742,-1.5751,-1.5744,-1.576,-1.5765,-1.5722,-1.573,-1.5721,-1.5744,-1.5756,-1.5763,-1.5792,-1.5768,-1.5777,-1.5758,-1.5819,-1.576,-1.5771,-1.576,-1.5758,-1.5761,-1.5831,-1.5833,-1.5835,-1.5836,0,-1.5883,-1.5864,-1.5873,-1.5877,-1.5884,-1.5885,-1.5883,-1.5894,-1.5848,-1.5859,-1.5875,-1.588,-1.5892,-1.5905,-1.5908,-1.5899,-1.5861,-1.5855,-1.5867,-1.5879,-1.589,-1.5885,-1.5699,-1.5851,-1.585,-1.5849,-1.5848,-1.5847,-1.5993,-1.6016,-1.6002,-1.6014,-1.6007,-1.6006,-1.6025,-1.6004,-1.6016,-1.6021,-1.5995,-1.6016,-1.6007,-1.6007,-1.6003,-1.6019,-1.5992,-1.601,-1.6014,-1.6019,-1.6027,-1.5888,-1.602,-1.602,-1.6019,-1.6019,-1.6018,0,-1.6136,-1.6124,-1.6135,-1.6132,-1.6142,-1.6104,-1.6099,-1.611,-1.6129,-1.6122,-1.613,-1.6148,-1.616,-1.6138,-1.6147,-1.6165,-1.6147,-1.6168,-1.6167,-1.6165,-1.6051,-1.6039,-1.6182,-1.6182,-1.6182,-1.6182,-1.6182,-1.6182,-1.6211,-1.6247,-1.6227,-1.626,-1.6248,-1.6267,-1.6268,-1.6267,-1.6262,-1.6284,-1.6293,-1.6278,-1.6265,-1.6273,-1.6283,-1.6276,-1.6281,-1.6309,-1.6296,-1.6189,-1.6173,-1.6158,-1.6147,-1.631,-1.6311,-1.6409,-1.641,-1.6411]},{"header":{"parameterUnit":"m.s-1","parameterCategory":1,"la1":30.2991,"la2":30.254,"lo1":-89.0895,"lo2":-89.0444,"dy":0.0017,"dx":0.0017,"nx":28,"ny":28,"refTime":"2023-09-25T09:00:00:Z","depth":0,"parameterNumber":3,"parameterNumberName":"V-component_of_WINDS"},"data":[0,0,0,0,0,0,0,0,0,0,0,0,0,0,0,0,0,0,0,0,0,0,0,0,0,0,0,0,0,0,0,0,0,0,0,0,0,0,0,0,0,0,0,0,0,0,0,0,0,0,0,0,0,0,0,0,0,0,-2.521,-2.521,0,-2.5232,-2.5232,-2.5233,-2.53,-2.5301,-2.5303,-2.5304,-2.5322,-2.5321,-2.5321,0,0,0,0,0,0,0,0,0,0,0,0,0,-2.522,-2.522,-2.521,-2.521,-2.5211,-2.5232,-2.5232,-2.5233,-2.53,-2.5301,-2.5303,-2.5305,-2.5323,-2.5322,-2.532,0,0,0,0,0,0,0,0,0,0,0,0,0,-2.5226,-2.522,-2.521,-2.5247,-2.525,-2.5232,-2.5232,-2.5233,-2.5299,-2.5301,-2.5304,-2.5306,-2.5323,-2.5322,-2.532,-2.5267,0,0,-2.5316,-2.5316,0,0,0,0,0,0,0,0,-2.5226,-2.5226,-2.5241,-2.5244,-2.5248,-2.5266,-2.5243,-2.5244,-2.5299,-2.528,-2.5304,-2.5307,-2.5301,-2.5302,-2.5301,-2.5268,-2.5269,-2.5316,-2.5315,-2.5315,-2.5314,0,0,0,0,0,0,0,-2.5225,-2.5225,-2.5219,-2.5241,-2.5245,-2.526,-2.5264,-2.5243,-2.5278,-2.5282,-2.5287,-2.5289,-2.5304,-2.5302,-2.5302,-2.5269,-2.5316,-2.5315,-2.5314,-2.5313,-2.519,-2.5187,0,0,0,0,0,0,-2.522,-2.5224,-2.5218,-2.5219,-2.5242,-2.5258,-2.5262,-2.5258,-2.5278,-2.5284,-2.5287,-2.5292,-2.5303,-2.5303,-2.5303,-2.5239,-2.5315,-2.5313,-2.5313,-2.5192,-2.5189,-2.5186,0,0,0,0,0,0,-2.522,-2.5219,-2.5217,-2.5223,-2.5224,-2.5256,-2.525,-2.5257,-2.5255,-2.5282,-2.5288,-2.5279,-2.5305,-2.5305,-2.5275,-2.524,-2.5313,-2.5312,-2.5195,-2.5191,-2.5188,-2.5111,0,0,0,0,0,0,-2.522,-2.5219,-2.52,-2.5222,-2.5224,-2.519,-2.5248,-2.5256,-2.5253,-2.526,-2.5277,-2.5281,-2.5307,-2.5277,-2.5274,-2.524,-2.531,-2.5198,-2.5193,-2.5189,-2.5117,-2.5106,-2.5096,0,0,0,0,0,-2.522,-2.5178,-2.5199,-2.5198,-2.5201,-2.5188,-2.5189,-2.522,-2.5251,-2.5231,-2.5248,-2.5281,-2.5245,-2.5273,-2.527,-2.5235,-2.52,-2.5195,-2.5189,-2.5122,-2.5108,-2.5096,0,0,0,0,0,0,-2.5149,-2.5181,-2.5205,-2.5169,-2.5175,-2.52,-2.5176,-2.5205,-2.5202,-2.5208,-2.5246,-2.5249,-2.5213,-2.5222,-2.5252,-2.5183,-2.5228,-2.5222,-2.5178,-2.5165,-2.5154,-2.5151,-2.5309,0,0,0,0,0,-2.513,-2.5118,-2.5146,-2.5111,-2.5113,-2.5144,-2.5139,-2.5163,-2.5171,-2.5173,-2.5188,-2.5193,-2.5183,-2.5175,-2.5167,-2.512,-2.5122,-2.5095,-2.5084,-2.5075,-2.5067,-2.5039,-2.5026,-2.5168,-2.5168,-2.5168,0,0,-2.5088,-2.5104,-2.5094,-2.5097,-2.5105,-2.5089,-2.5146,-2.5128,-2.5116,-2.517,-2.5142,-2.5153,-2.5161,-2.5121,-2.5104,-2.5127,-2.5029,-2.5068,-2.506,-2.5058,-2.5032,-2.5018,-2.5006,-2.5164,-2.5165,-2.5166,0,0,-2.5003,-2.5016,-2.4987,-2.4994,-2.5005,-2.5026,-2.5019,-2.5039,-2.5048,-2.5021,-2.5061,-2.5047,-2.5029,-2.5032,-2.5031,-2.4947,-2.4975,-2.4943,-2.4886,-2.4857,-2.4846,-2.4836,-2.4802,-2.4789,-2.4937,-2.4937,-2.4937,0,-2.4949,-2.493,-2.4968,-2.4946,-2.4945,-2.4995,-2.4964,-2.4968,-2.4976,-2.4973,-2.5,-2.4977,-2.4986,-2.4945,-2.4924,-2.4924,-2.4914,-2.494,-2.4845,-2.4836,-2.4827,-2.4794,-2.4782,-2.4932,-2.4933,-2.4933,-2.4934,0,-2.4861,-2.4846,-2.4821,-2.4828,-2.4824,-2.4798,-2.4829,-2.482,-2.4845,-2.4861,-2.4831,-2.4844,-2.4838,-2.4832,-2.4855,-2.4793,-2.4807,-2.4839,-2.4884,-2.4808,-2.4778,-2.4766,-2.4926,-2.4928,-2.4929,-2.493,0,0,-2.473,-2.4758,-2.4747,-2.475,-2.4766,-2.4755,-2.473,-2.4725,-2.4715,-2.4719,-2.4696,-2.468,-2.4709,-2.4708,-2.4733,-2.4708,-2.4635,-2.4743,-2.4744,-2.4718,-2.4563,-2.4535,-2.452,-2.4656,-2.4654,-2.4652,-2.456,0,-2.4646,-2.4606,-2.4639,-2.4592,-2.4577,-2.4624,-2.4602,-2.4608,-2.4624,-2.4611,-2.4628,-2.4614,-2.4656,-2.4655,-2.4634,-2.4648,-2.4603,-2.4656,-2.4631,-2.463,-2.4623,-2.4505,-2.4476,-2.4389,-2.4549,-2.4547,-2.4546,0,-2.4543,-2.4542,-2.4494,-2.4511,-2.4506,-2.4486,-2.4482,-2.4472,-2.4479,-2.4491,-2.4489,-2.452,-2.4494,-2.4541,-2.4503,-2.4538,-2.4531,-2.4536,-2.4534,-2.4529,-2.458,-2.4492,-2.4362,-2.4347,-2.4529,-2.453,-2.4531,0,-2.4446,-2.4434,-2.4402,-2.4404,-2.4424,-2.4408,-2.4416,-2.4426,-2.442,-2.4417,-2.4413,-2.4407,-2.4402,-2.4396,-2.4422,-2.4455,-2.4379,-2.443,-2.4385,-2.4384,-2.4363,-2.4363,-2.4225,-2.4366,-2.4366,-2.4366,-2.4367,0,-2.4347,-2.4314,-2.4359,-2.4339,-2.4302,-2.434,-2.4303,-2.4315,-2.4323,-2.4304,-2.4347,-2.4327,-2.4366,-2.435,-2.4371,-2.4334,-2.4333,-2.4339,-2.4344,-2.4333,-2.4331,-2.4324,-2.4329,-2.4363,-2.4364,-2.4364,-2.4365,0,-2.4231,-2.4261,-2.4228,-2.4251,-2.4256,-2.4227,-2.4246,-2.4227,-2.4245,-2.4221,-2.4217,-2.4245,-2.4228,-2.4255,-2.4242,-2.4256,-2.4203,-2.422,-2.42,-2.4203,-2.4155,-2.4157,-2.4004,-2.3984,-2.4142,-2.414,-2.4139,0,-2.4163,-2.4139,-2.4159,-2.415,-2.4156,-2.4141,-2.4136,-2.4172,-2.4164,-2.4169,-2.4148,-2.4136,-2.4127,-2.4098,-2.4115,-2.4104,-2.4118,-2.4065,-2.4116,-2.4104,-2.4111,-2.411,-2.4106,-2.4053,-2.4051,-2.4049,-2.4048,0,-2.4038,-2.4054,-2.4045,-2.4041,-2.4033,-2.4031,-2.4032,-2.4022,-2.406,-2.4048,-2.4032,-2.4026,-2.4012,-2.3997,-2.399,-2.3996,-2.4025,-2.4033,-2.4021,-2.4006,-2.3994,-2.3995,-2.4166,-2.4035,-2.4036,-2.4037,-2.4038,-2.4038,-2.3942,-2.3921,-2.3931,-2.3919,-2.3924,-2.3923,-2.3906,-2.3922,-2.391,-2.3902,-2.3925,-2.3902,-2.3908,-2.3902,-2.3904,-2.3885,-2.3908,-2.3892,-2.3887,-2.3881,-2.3871,-2.4001,-2.3884,-2.3885,-2.3885,-2.3886,-2.3886,0,-2.3815,-2.3824,-2.3813,-2.3813,-2.3802,-2.3836,-2.3838,-2.3826,-2.3807,-2.381,-2.3801,-2.378,-2.3766,-2.3783,-2.377,-2.3752,-2.3765,-2.3747,-2.3746,-2.3745,-2.3854,-2.3863,-2.3736,-2.3736,-2.3736,-2.3736,-2.3736,-2.3736,-2.3747,-2.3713,-2.3729,-2.3697,-2.3706,-2.3685,-2.3683,-2.3681,-2.3684,-2.366,-2.3649,-2.3661,-2.3668,-2.3657,-2.3643,-2.3649,-2.364,-2.3615,-2.3624,-2.3724,-2.3739,-2.3752,-2.3761,-2.3614,-2.3614,-2.3517,-2.3516,-2.3515]}]]